Regional Weather Roundup
Issued by NWS

Home | Current Version | Previous Version | Text Only | Print | Product List | Glossary On
Versions: 1 2 3 4 5 6 7 8 9 10 11 12 13 14 15 16 17 18 19 20 21 22 23 24 25 26 27 28 29 30 31 32 33 34 35 36 37 38 39 40 41 42 43 44 45 46 47 48 49 50
000
ASUS44 KLUB 191010
RWRTX
WEST TEXAS WEATHER ROUNDUP
NATIONAL WEATHER SERVICE LUBBOCK TX
400 AM CST SUN FEB 19 2017

NOTE: "FAIR" INDICATES FEW OR NO CLOUDS BELOW 12,000 FEET WITH NO
SIGNIFICANT WEATHER AND/OR OBSTRUCTIONS TO VISIBILITY.

TXZ004-006>008-010-012-014-016-OKZ002-191100-
TEXAS PANHANDLE/OKLAHOMA PANHANDLE

CITY           SKY/WX    TMP DP  RH WIND       PRES   REMARKS
AMARILLO       CLOUDY    43  43 100 SE13      29.81S FOG
BORGER         CLEAR     51  46  83 S13       29.79F
CANADIAN       CLOUDY    52  51  97 S6G16     29.81S FOG
DALHART        CLOUDY    43  40  89 SW3       29.81F
DUMAS          CLOUDY    45  43  93 S9        29.80S
GUYMON         CLEAR     46  45  96 S8        29.78S
HEREFORD       CLOUDY    43  42  97 SE5       29.80F
PAMPA          DRZL/FOG  49  48  97 S14       29.81F VSB 3/4
PERRYTON       CLOUDY    52  50  94 S15G22    29.79S
$$

TXZ026-029-035-045-048-191100-
SOUTHERN PANHANDLE/SOUTH PLAINS/ROLLING PLAINS

CITY           SKY/WX    TMP DP  RH WIND       PRES   REMARKS
CHILDRESS      FOG       47  46  97 E6        29.80F VSB 1/2
SEMINOLE       PTCLDY    52  40  64 SE7       29.75S
LUBBOCK        MOCLDY    46  43  89 E12       29.77S
PLAINVIEW      PTCLDY    44  40  87 E7        29.77S
SNYDER         PTCLDY    52  44  74 E9        29.77F
$$

TXZ052-054-060>062-072-078-127-140-154-169-191100-
PERMIAN BASIN/CONCHO VALLEY/BIG COUNTRY/EDWARDS PLATEAU

CITY           SKY/WX    TMP DP  RH WIND       PRES   REMARKS
ABILENE        CLOUDY    52  43  71 SE8       29.79S
BIG SPRING     CLOUDY    60  48  64 SE14      29.76F
BROWNWOOD      PTCLDY    59  57  94 S8        29.81R
JUNCTION       CLOUDY    63  59  87 SE5       29.80R
MIDLAND        PTCLDY    58  42  55 SE14      29.73F
ODESSA         CLOUDY    59  42  53 SE13      29.74S
SAN ANGELO     PTCLDY    63  56  78 SE10      29.76S
SONORA           N/A     61  57  88 CALM      29.81F
SWEETWATER     CLOUDY    58  44  60 SE10      29.79F
WINK             N/A     59  37  44 MISG      29.71R
$$

TXZ055-058-074-075-080-082-191100-
FAR WEST/SOUTHWEST MOUNTAINS/TRANS PECOS

CITY           SKY/WX    TMP DP  RH WIND       PRES   REMARKS
ALPINE         CLOUDY    62  26  26 SW16      29.84R
DRYDEN           N/A     61  48  62 SE8       29.72R
EL PASO        CLOUDY    49  34  56 E6        29.81F
FORT STOCKTON  PTCLDY    62  38  40 S9        29.71R
GUADALUPE PASS CLOUDY    45  31  58 SW37G52   29.80F
MARFA          PTCLDY    50  28  42 W15       29.84R
PECOS          CLOUDY    55  33  44 NW12      29.75R
PRESIDIO       FAIR      62  28  28 W12G17    29.78R
$$

TXZ014-016-019-021>030-083-191100
TEXAS TECH WEST TEXAS MESONET/TEXAS PANHANDLE/NORTHERN SOUTH PLAINS

CITY           SKY/WX    TMP DP  RH WIND       PRES   REMARKS
ABERNATHY 5ENE   N/A     45  42  88 E9        29.78F
AMARILLO 9NNE    N/A     46  46 100 S9        29.80F
AMARILLO 7SSE    N/A     40  40  98 E5        29.82S
AMHERST 1NE      N/A     47  42  85 E9        29.78S
BOOTLEG 11WNW    N/A     40  38  95 SE7       29.81F WCI  35
CANADIAN 6E      N/A     50  50  99 SE9       29.80F
CAPROCK CYN SP   N/A     43  42  97 NW3       29.81S
CHILDRESS 2NNE   N/A     44  44  97 NE7       29.79F
CLARENDON 2WSW   N/A     45  44  94 E3        29.82S
CLAUDE 12SW      N/A     43  42  99 E9        29.81S
DIMMITT 2NE      N/A     44  41  88 SE8       29.79F
FLOYDADA 2NNE    N/A     41  40  95 E7        29.78F
FRIONA 2NE       N/A     42  40  95 E6        29.80S
GOODLETT 3W      N/A     46  44  96 N6        29.79S
HART 3N          N/A     42  40  91 E6        29.79S
HEREFORD 2NW     N/A     41  38  89 NE2       29.80S
MCLEAN 1E        N/A     48  48  98 SE8       29.81S
MEMPHIS 1NE      N/A     46  46  97 N3        29.81F
MULESHOE 2SSW    N/A     41  39  93 E6        29.78S
OLTON 6S         N/A     43  40  89 E8        29.78F
PALO DURO SP     N/A     47  45  93 SE5       29.82S
PAMPA 2E         N/A     47  47  99 SE12      29.81F
PLAINVIEW 1S     N/A     43  41  93 E5        29.78F
SILVERTON 7ESE   N/A     44  42  91 E8        29.81S
TULIA 2ENE       N/A     41  40  99 E7        29.80S
TURKEY 2WSW      N/A     46  45  98 N5        29.79F
UMBARGER 3NNE    N/A     44  42  95 SE10      29.81S
$$

TXZ033>036-039>041-045>048-191100
TEXAS TECH WEST TEXAS MESONET/SOUTH PLAINS

CITY           SKY/WX    TMP DP  RH WIND       PRES   REMARKS
AIKEN 3WSW       N/A     44  41  89 E9        29.80S
ANDREWS 2NE      N/A     51  39  63 SE7       29.75S
ANTON 6SSW       N/A     45  42  90 E7        29.77S
BROWNFIELD 2S    N/A     49  43  78 E7        29.75F
DENVR CTY 7WNW   N/A     50  38  63 E9        29.75S
GAIL 2ESE        N/A     47  43  87 NW3       29.76F
LAMESA 2SE       N/A     52  44  72 E8        29.76F
LEVELLAND 4S     N/A     47  42  84 E9        29.77S
LUBBOCK 3WNW     N/A     48  44  87 E6        29.78S
MORTON 1ENE      N/A     43  40  89 E6        29.76F
ODONNELL 1N      N/A     49  42  79 E9        29.75F
PLAINS 3N        N/A     47  41  77 E10       29.75S
RALLS 1SE        N/A     46  41  84 E7        29.78F
REESE CENTER     N/A     48  43  82 E9        29.77S
SEAGRAVES 1SW    N/A     52  41  66 E8        29.75S
SEMINOLE 2NNE    N/A     51  40  65 E9        29.74S
SLATON 2NE       N/A     49  44  82 E7        29.78S
SNYDER 3E        N/A     55  45  69 E12       29.77S
SUNDOWN 8SW      N/A     45  42  88 E7        29.76S
TAHOKA 3NNE      N/A     47  44  90 E6        29.76S
WOLFFORTH 6SSW   N/A     47  44  90 E8        29.77S
$$

TXZ031-032-036>038-042>044-191100-
TEXAS TECH WEST TEXAS MESONET/ROLLING PLAINS

CITY           SKY/WX    TMP DP  RH WIND       PRES   REMARKS
ASPERMONT 3NE    N/A     43  42  97 CALM      29.78S
FLUVANNA 3WNW    N/A     52  42  70 E9        29.77F
GRAHAM 5SSW      N/A     47  44  87 SE7       29.77S
GUTHRIE 10WSW    N/A     43  41  93 N2        29.77S
HASKELL 1NW      N/A     51  42  71 SE7       29.77F
JAYTON 1SSE      N/A     46  44  93 NE5       29.77F
KNOX CITY 3NW    N/A     44  41  91 NE2       29.78F
LK A HENRY 1NW   N/A     45  42  91 E2        29.77F
NORTHFIELD 1S    N/A     42  42  99 NW2       29.79F
ODELL 4ENE       N/A     51  51 100 E8        29.80F
PADUCAH 10SW     N/A     45  44  95 N6        29.78S
POST 1NE         N/A     48  45  89 E1        29.77F
RRING SPRGS 3N   N/A     51  45  81 E1        29.78F
SEYMOUR 3NW      N/A     49  47  92 E5        29.78F
SPUR 1W          N/A     46  44  93 E3        29.77F
WEINERT 2NNE     N/A     45  43  90 E3        29.78S
WHITE RVR 6NE    N/A     50  42  75 NE6       29.78S
$$

TXZ052-054-060>062-072-078-127-140-154-169-191100-
TEXAS TECH WEST TEXAS MESONET/PERMIAN BASIN/
CONCHO VALLEY/BIG COUNTRY/EDWARDS PLATEAU

CITY           SKY/WX    TMP DP  RH WIND       PRES   REMARKS
COYANOSA 2N      N/A     58  38  47 E8        29.71F
JUNCTION 1SSW    N/A     63  60  88 S7        29.81R
MERTZON 3NNE     N/A     60  55  82 SE6       29.78F
SAN ANGELO 7NW   N/A     57  48  73 NE5       29.77F
STRLNG CT 4WSW   N/A     58  47  66 SE9       29.78S
ST LAWRNCE 5SW   N/A     56  48  74 SE14      29.75F
SWEETWATR 11SW   N/A     60  49  66 SE13      29.78F
WALL 1E          N/A     63  57  80 SE20      29.77S
$$

TXZ055-058-074-075-080-082-191100-
TEXAS TECH WEST TEXAS MESONET/FAR WEST/SOUTHWEST MOUNTAINS/TRANS PECOS

CITY           SKY/WX    TMP DP  RH WIND       PRES   REMARKS
PRSMN GAP BBNP   N/A     60  34  38 NE2       29.74R
GUADLPE MTN NP   N/A     45  30  56 W40G56    29.76F
$$




USA.gov is the U.S. government's official web portal to all federal, state and local government web resources and services.